User: anonymous   Login
Location: Unspecified
(0.0000°N, 0.0000°E)
Time: 13:37:08
(UTC+00:00)
Language:

DELFI C3 - Orbit

View from above orbital plane
View from above orbital plane
View from above satellite
View from above satellite

Ground track
Ground track

The orbit data is extracted from the following two-line orbital elements,

1 32789U 08021G   19342.70691782 +.00000630 +00000-0 +45696-4 0  9992
2 32789 097.4443 026.9839 0010710 250.2692 109.7381 15.07308249632924
Epoch (UTC): 08 December 2019 16:57:57
Eccentricity: 0.0010710
inclination: 97.4443°
perigee height: 537 km
apogee height: 552 km
right ascension of ascending node: 26.9839°
argument of perigee: 250.2692°
revolutions per day: 15.07308249
mean anomaly at epoch: 109.7381°
orbit number at epoch: 63292

The dashed part of the orbit path shows where the satellite is in the earth's shadow,  

DLR